Location: ????????
(55.7667°N, 37.4833°E)
Time: 06:19:38
(UTC+00:00)

NOSS 2-1 (D) - Pass Details

Date: 19 May 2025
Orbit: 378 x 1697 km, 63.3° (Epoch: 15 June)

Event Time Altitude Azimuth Distance (km) Brightness Sun altitude
Exits shadow 22:36:15 - 263° (W) 2,175 6.1 -12.8°
Reaches altitude 10° 22:38:04 10° 273° (W) 1,429 5.3 -12.8°
Maximum altitude 22:40:49 30° 338° (NNW) 714 4.5 -12.6°
Drops below altitude 10° 22:43:34 10° 43° (NE) 1,432 6.6 -12.5°
Sets 22:45:49 0° 55° (NE) 2,359 7.5 -12.4°
